owner,sensor,date,latitude,longitude,vertical_datum,wind_speed,wind_to_direction,wind_speed_of_gust,qcFlag 
COMPS,ioos:station:USF.COMPS:C12:1,2017-12-01T00:05:00Z,27.4980,-83.7220,3.0,4.12,-99.99,5.02,'1111122,1111122,1111122' 
COMPS,ioos:station:USF.COMPS:C12:1,2017-12-01T00:35:00Z,27.4980,-83.7220,3.0,4.99,-99.99,6.02,'1111122,1111122,1111122' 
COMPS,ioos:station:USF.COMPS:C12:1,2017-12-01T01:05:00Z,27.4980,-83.7220,3.0,5.35,-99.99,6.61,'1111122,1111122,1111122' 
COMPS,ioos:station:USF.COMPS:C12:1,2017-12-01T01:35:00Z,27.4980,-83.7220,3.0,5.21,-99.99,6.37,'1111122,1111122,1111122' 
COMPS,ioos:station:USF.COMPS:C12:1,2017-12-01T02:05:00Z,27.4980,-83.7220,3.0,5.16,-99.99,6.21,'1111122,1111122,1111122' 
COMPS,ioos:station:USF.COMPS:C12:1,2017-12-01T02:35:00Z,27.4980,-83.7220,3.0,5.04,-99.99,6.13,'1111122,1111122,1111122' 
COMPS,ioos:station:USF.COMPS:C12:1,2017-12-01T03:05:00Z,27.4980,-83.7220,3.0,5.63,-99.99,6.86,'1111122,1111122,1111122' 
COMPS,ioos:station:USF.COMPS:C12:1,2017-12-01T03:35:00Z,27.4980,-83.7220,3.0,6.35,-99.99,7.93,'1111122,1111122,1111122' 
COMPS,ioos:station:USF.COMPS:C12:1,2017-12-01T04:05:00Z,27.4980,-83.7220,3.0,6.89,-99.99,8.25,'1111122,1111122,1111122' 
COMPS,ioos:station:USF.COMPS:C12:1,2017-12-01T04:35:00Z,27.4980,-83.7220,3.0,7.06,-99.99,8.56,'1111122,1111122,1111122' 
COMPS,ioos:station:USF.COMPS:C12:1,2017-12-01T05:05:00Z,27.4980,-83.7220,3.0,6.31,-99.99,7.95,'1111122,1111122,1111122' 
COMPS,ioos:station:USF.COMPS:C12:1,2017-12-01T05:35:00Z,27.4980,-83.7220,3.0,6.55,-99.99,7.83,'1111122,1111122,1111122' 
COMPS,ioos:station:USF.COMPS:C12:1,2017-12-01T06:05:00Z,27.4980,-83.7220,3.0,5.92,-99.99,6.94,'1111122,1111122,1111122' 
COMPS,ioos:station:USF.COMPS:C12:1,2017-12-01T06:35:00Z,27.4980,-83.7220,3.0,5.62,-99.99,6.68,'1111122,1111122,1111122' 
COMPS,ioos:station:USF.COMPS:C12:1,2017-12-01T07:05:00Z,27.4980,-83.7220,3.0,4.93,-99.99,6.68,'1111122,1111122,1111122' 
COMPS,ioos:station:USF.COMPS:C12:1,2017-12-01T07:35:00Z,27.4980,-83.7220,3.0,5.01,-99.99,6.09,'1111122,1111122,1111122' 
COMPS,ioos:station:USF.COMPS:C12:1,2017-12-01T08:05:00Z,27.4980,-83.7220,3.0,4.29,-99.99,5.19,'1111122,1111122,1111122' 
COMPS,ioos:station:USF.COMPS:C12:1,2017-12-01T08:35:00Z,27.4980,-83.7220,3.0,4.11,-99.99,5.05,'1111122,1111122,1111122' 
COMPS,ioos:station:USF.COMPS:C12:1,2017-12-01T09:05:00Z,27.4980,-83.7220,3.0,3.45,-99.99,4.47,'1111122,1111122,1111122' 
COMPS,ioos:station:USF.COMPS:C12:1,2017-12-01T09:35:00Z,27.4980,-83.7220,3.0,3.15,-99.99,3.98,'1111122,1111122,1111122' 
COMPS,ioos:station:USF.COMPS:C12:1,2017-12-01T10:05:00Z,27.4980,-83.7220,3.0,3.07,-99.99,4.08,'1111122,1111122,1111122' 
COMPS,ioos:station:USF.COMPS:C12:1,2017-12-01T10:35:00Z,27.4980,-83.7220,3.0,2.12,-99.99,2.96,'1111122,1111122,1111122' 
COMPS,ioos:station:USF.COMPS:C12:1,2017-12-01T11:05:00Z,27.4980,-83.7220,3.0,3.0,-99.99,3.67,'1111122,1111122,1111122' 
COMPS,ioos:station:USF.COMPS:C12:1,2017-12-01T11:35:00Z,27.4980,-83.7220,3.0,3.23,-99.99,4.1,'1111122,1111122,1111122' 
COMPS,ioos:station:USF.COMPS:C12:1,2017-12-01T12:05:00Z,27.4980,-83.7220,3.0,3.84,-99.99,4.9,'1111122,1111122,1111122' 
COMPS,ioos:station:USF.COMPS:C12:1,2017-12-01T12:35:00Z,27.4980,-83.7220,3.0,3.7,-99.99,4.61,'1111122,1111122,1111122' 
COMPS,ioos:station:USF.COMPS:C12:1,2017-12-01T13:05:00Z,27.4980,-83.7220,3.0,3.16,-99.99,4.17,'1111122,1111122,1111122' 
COMPS,ioos:station:USF.COMPS:C12:1,2017-12-01T13:35:00Z,27.4980,-83.7220,3.0,3.37,-99.99,4.33,'1111122,1111122,1111122' 
COMPS,ioos:station:USF.COMPS:C12:1,2017-12-01T14:05:00Z,27.4980,-83.7220,3.0,3.56,-99.99,4.57,'1111122,1111122,1111122' 
COMPS,ioos:station:USF.COMPS:C12:1,2017-12-01T14:35:00Z,27.4980,-83.7220,3.0,3.63,-99.99,4.41,'1111122,1111122,1111122' 
COMPS,ioos:station:USF.COMPS:C12:1,2017-12-01T15:05:00Z,27.4980,-83.7220,3.0,3.18,-99.99,4.5,'1111122,1111122,1111122' 
COMPS,ioos:station:USF.COMPS:C12:1,2017-12-01T15:35:00Z,27.4980,-83.7220,3.0,3.74,-99.99,4.77,'1111122,1111122,1111122' 
COMPS,ioos:station:USF.COMPS:C12:1,2017-12-01T16:05:00Z,27.4980,-83.7220,3.0,3.57,-99.99,4.91,'1111122,1111122,1111122' 
COMPS,ioos:station:USF.COMPS:C12:1,2017-12-01T16:35:00Z,27.4980,-83.7220,3.0,3.25,-99.99,4.19,'1111122,1111122,1111122' 
COMPS,ioos:station:USF.COMPS:C12:1,2017-12-01T17:05:00Z,27.4980,-83.7220,3.0,2.74,-99.99,3.77,'1111122,1111122,1111122' 
COMPS,ioos:station:USF.COMPS:C12:1,2017-12-01T17:35:00Z,27.4980,-83.7220,3.0,2.89,-99.99,3.94,'1111122,1111122,1111122' 
COMPS,ioos:station:USF.COMPS:C12:1,2017-12-01T18:05:00Z,27.4980,-83.7220,3.0,2.91,-99.99,4.13,'1111122,1111122,1111122' 
COMPS,ioos:station:USF.COMPS:C12:1,2017-12-01T18:35:00Z,27.4980,-83.7220,3.0,3.04,-99.99,3.8,'1111122,1111122,1111122' 
COMPS,ioos:station:USF.COMPS:C12:1,2017-12-01T19:05:00Z,27.4980,-83.7220,3.0,2.83,-99.99,3.77,'1111122,1111122,1111122' 
COMPS,ioos:station:USF.COMPS:C12:1,2017-12-01T19:35:00Z,27.4980,-83.7220,3.0,2.63,-99.99,3.49,'1111122,1111122,1111122' 
COMPS,ioos:station:USF.COMPS:C12:1,2017-12-01T20:05:00Z,27.4980,-83.7220,3.0,2.95,-99.99,4.06,'1111122,1111122,1111122' 
COMPS,ioos:station:USF.COMPS:C12:1,2017-12-01T20:35:00Z,27.4980,-83.7220,3.0,2.82,-99.99,3.68,'1111122,1111122,1111122' 
COMPS,ioos:station:USF.COMPS:C12:1,2017-12-01T21:05:00Z,27.4980,-83.7220,3.0,2.56,-99.99,3.34,'1111122,1111122,1111122' 
COMPS,ioos:station:USF.COMPS:C12:1,2017-12-01T21:35:00Z,27.4980,-83.7220,3.0,2.91,-99.99,3.54,'1111122,1111122,1111122' 
COMPS,ioos:station:USF.COMPS:C12:1,2017-12-01T22:05:00Z,27.4980,-83.7220,3.0,2.86,-99.99,3.59,'1111122,1111122,1111122' 
COMPS,ioos:station:USF.COMPS:C12:1,2017-12-01T22:35:00Z,27.4980,-83.7220,3.0,3.43,-99.99,4.49,'1111122,1111122,1111122' 
COMPS,ioos:station:USF.COMPS:C12:1,2017-12-01T23:05:00Z,27.4980,-83.7220,3.0,4.39,-99.99,5.22,'1111122,1111122,1111122' 
COMPS,ioos:station:USF.COMPS:C12:1,2017-12-01T23:35:00Z,27.4980,-83.7220,3.0,4.64,-99.99,5.49,'1111122,1111122,1111122' 
COMPS,ioos:station:USF.COMPS:C12:1,2017-12-02T00:05:00Z,27.4980,-83.7220,3.0,5.34,-99.99,6.43,'1111122,1111122,1111122' 
COMPS,ioos:station:USF.COMPS:C12:1,2017-12-02T00:35:00Z,27.4980,-83.7220,3.0,5.39,-99.99,6.54,'1111122,1111122,1111122' 
COMPS,ioos:station:USF.COMPS:C12:1,2017-12-02T01:05:00Z,27.4980,-83.7220,3.0,5.2,-99.99,6.06,'1111122,1111122,1111122' 
COMPS,ioos:station:USF.COMPS:C12:1,2017-12-02T01:35:00Z,27.4980,-83.7220,3.0,4.95,-99.99,5.93,'1111122,1111122,1111122' 
COMPS,ioos:station:USF.COMPS:C12:1,2017-12-02T02:05:00Z,27.4980,-83.7220,3.0,4.7,-99.99,5.75,'1111122,1111122,1111122' 
COMPS,ioos:station:USF.COMPS:C12:1,2017-12-02T02:35:00Z,27.4980,-83.7220,3.0,4.68,-99.99,5.6,'1111122,1111122,1111122' 
COMPS,ioos:station:USF.COMPS:C12:1,2017-12-02T03:05:00Z,27.4980,-83.7220,3.0,4.92,-99.99,5.95,'1111122,1111122,1111122' 
COMPS,ioos:station:USF.COMPS:C12:1,2017-12-02T03:35:00Z,27.4980,-83.7220,3.0,4.47,-99.99,5.4,'1111122,1111122,1111122' 
COMPS,ioos:station:USF.COMPS:C12:1,2017-12-02T04:05:00Z,27.4980,-83.7220,3.0,3.96,-99.99,4.77,'1111122,1111122,1111122' 
COMPS,ioos:station:USF.COMPS:C12:1,2017-12-02T04:35:00Z,27.4980,-83.7220,3.0,4.85,-99.99,5.88,'1111122,1111122,1111122' 
COMPS,ioos:station:USF.COMPS:C12:1,2017-12-02T05:05:00Z,27.4980,-83.7220,3.0,4.7,-99.99,5.53,'1111122,1111122,1111122' 
COMPS,ioos:station:USF.COMPS:C12:1,2017-12-02T05:35:00Z,27.4980,-83.7220,3.0,4.85,-99.99,5.68,'1111122,1111122,1111122' 
COMPS,ioos:station:USF.COMPS:C12:1,2017-12-02T06:05:00Z,27.4980,-83.7220,3.0,5.03,-99.99,6.2,'1111122,1111122,1111122' 
COMPS,ioos:station:USF.COMPS:C12:1,2017-12-02T06:35:00Z,27.4980,-83.7220,3.0,5.06,-99.99,6.08,'1111122,1111122,1111122' 
COMPS,ioos:station:USF.COMPS:C12:1,2017-12-02T07:05:00Z,27.4980,-83.7220,3.0,4.5,-99.99,5.49,'1111122,1111122,1111122' 
COMPS,ioos:station:USF.COMPS:C12:1,2017-12-02T07:35:00Z,27.4980,-83.7220,3.0,4.81,-99.99,6.02,'1111122,1111122,1111122' 
COMPS,ioos:station:USF.COMPS:C12:1,2017-12-02T08:05:00Z,27.4980,-83.7220,3.0,4.5,-99.99,5.49,'1111122,1111122,1111122' 
COMPS,ioos:station:USF.COMPS:C12:1,2017-12-02T08:35:00Z,27.4980,-83.7220,3.0,4.07,-99.99,5.08,'1111122,1111122,1111122' 
COMPS,ioos:station:USF.COMPS:C12:1,2017-12-02T09:05:00Z,27.4980,-83.7220,3.0,3.79,-99.99,5.22,'1111122,1111122,1111122' 
COMPS,ioos:station:USF.COMPS:C12:1,2017-12-02T09:35:00Z,27.4980,-83.7220,3.0,3.42,-99.99,4.56,'1111122,1111122,1111122' 
COMPS,ioos:station:USF.COMPS:C12:1,2017-12-02T10:05:00Z,27.4980,-83.7220,3.0,3.27,-99.99,4.09,'1111122,1111122,1111122' 
COMPS,ioos:station:USF.COMPS:C12:1,2017-12-02T10:35:00Z,27.4980,-83.7220,3.0,3.76,-99.99,4.96,'1111122,1111122,1111122' 
COMPS,ioos:station:USF.COMPS:C12:1,2017-12-02T11:05:00Z,27.4980,-83.7220,3.0,3.29,-99.99,4.2,'1111122,1111122,1111122' 
COMPS,ioos:station:USF.COMPS:C12:1,2017-12-02T11:35:00Z,27.4980,-83.7220,3.0,3.39,-99.99,4.21,'1111122,1111122,1111122' 
COMPS,ioos:station:USF.COMPS:C12:1,2017-12-02T12:05:00Z,27.4980,-83.7220,3.0,3.41,-99.99,4.12,'1111122,1111122,1111122' 
COMPS,ioos:station:USF.COMPS:C12:1,2017-12-02T12:35:00Z,27.4980,-83.7220,3.0,2.58,-99.99,3.4,'1111122,1111122,1111122' 
COMPS,ioos:station:USF.COMPS:C12:1,2017-12-02T13:05:00Z,27.4980,-83.7220,3.0,2.89,-99.99,3.89,'1111122,1111122,1111122' 
COMPS,ioos:station:USF.COMPS:C12:1,2017-12-02T13:35:00Z,27.4980,-83.7220,3.0,2.7,-99.99,3.97,'1111122,1111122,1111122' 
COMPS,ioos:station:USF.COMPS:C12:1,2017-12-02T14:05:00Z,27.4980,-83.7220,3.0,3.26,-99.99,4.3,'1111122,1111122,1111122' 
COMPS,ioos:station:USF.COMPS:C12:1,2017-12-02T14:35:00Z,27.4980,-83.7220,3.0,3.2,-99.99,4.27,'1111122,1111122,1111122' 
COMPS,ioos:station:USF.COMPS:C12:1,2017-12-02T15:05:00Z,27.4980,-83.7220,3.0,2.48,-99.99,3.34,'1111122,1111122,1111122' 
COMPS,ioos:station:USF.COMPS:C12:1,2017-12-02T15:35:00Z,27.4980,-83.7220,3.0,2.0,-99.99,2.67,'1111122,1111122,1111122' 
COMPS,ioos:station:USF.COMPS:C12:1,2017-12-02T16:05:00Z,27.4980,-83.7220,3.0,2.01,-99.99,2.7,'1111122,1111122,1111122' 
COMPS,ioos:station:USF.COMPS:C12:1,2017-12-02T16:35:00Z,27.4980,-83.7220,3.0,2.46,-99.99,3.59,'1111122,1111122,1111122' 
COMPS,ioos:station:USF.COMPS:C12:1,2017-12-02T17:05:00Z,27.4980,-83.7220,3.0,2.12,-99.99,3.0,'1111122,1111122,1111122' 
COMPS,ioos:station:USF.COMPS:C12:1,2017-12-02T17:35:00Z,27.4980,-83.7220,3.0,2.2,-99.99,2.89,'1111122,1111122,1111122' 
COMPS,ioos:station:USF.COMPS:C12:1,2017-12-02T18:05:00Z,27.4980,-83.7220,3.0,1.97,-99.99,2.91,'1111122,1111122,1111122' 
COMPS,ioos:station:USF.COMPS:C12:1,2017-12-02T18:35:00Z,27.4980,-83.7220,3.0,2.14,-99.99,3.09,'1111122,1111122,1111122' 
COMPS,ioos:station:USF.COMPS:C12:1,2017-12-02T19:05:00Z,27.4980,-83.7220,3.0,1.57,-99.99,2.18,'1111122,1111122,1111122' 
COMPS,ioos:station:USF.COMPS:C12:1,2017-12-02T19:35:00Z,27.4980,-83.7220,3.0,1.05,-99.99,1.65,'1111122,1111122,1111122' 
COMPS,ioos:station:USF.COMPS:C12:1,2017-12-02T20:05:00Z,27.4980,-83.7220,3.0,1.23,-99.99,2.02,'1111122,1111122,1111122' 
COMPS,ioos:station:USF.COMPS:C12:1,2017-12-02T20:35:00Z,27.4980,-83.7220,3.0,1.54,-99.99,2.05,'1111122,1111122,1111122' 
COMPS,ioos:station:USF.COMPS:C12:1,2017-12-02T21:05:00Z,27.4980,-83.7220,3.0,1.28,-99.99,1.73,'1111122,1111122,1111122' 
COMPS,ioos:station:USF.COMPS:C12:1,2017-12-02T21:35:00Z,27.4980,-83.7220,3.0,1.46,-99.99,2.1,'1111122,1111122,1111122' 
COMPS,ioos:station:USF.COMPS:C12:1,2017-12-02T22:05:00Z,27.4980,-83.7220,3.0,1.25,-99.99,1.8,'1111122,1111122,1111122' 
COMPS,ioos:station:USF.COMPS:C12:1,2017-12-02T22:35:00Z,27.4980,-83.7220,3.0,1.29,-99.99,1.76,'1111122,1111122,1111122' 
COMPS,ioos:station:USF.COMPS:C12:1,2017-12-02T23:05:00Z,27.4980,-83.7220,3.0,1.78,-99.99,2.42,'1111122,1111122,1111122' 
COMPS,ioos:station:USF.COMPS:C12:1,2017-12-02T23:35:00Z,27.4980,-83.7220,3.0,2.06,-99.99,2.65,'1111122,1111122,1111122' 
COMPS,ioos:station:USF.COMPS:C12:1,2017-12-03T00:05:00Z,27.4980,-83.7220,3.0,-99.0,-99.99,-99.0,'1111122,1111122,1111122' 
COMPS,ioos:station:USF.COMPS:C12:1,2017-12-03T00:35:00Z,27.4980,-83.7220,3.0,-99.0,-99.99,-99.0,'1111122,1111122,1111122' 
COMPS,ioos:station:USF.COMPS:C12:1,2017-12-03T01:05:00Z,27.4980,-83.7220,3.0,-99.0,-99.99,-99.0,'1111122,1111122,1111122' 
COMPS,ioos:station:USF.COMPS:C12:1,2017-12-03T01:35:00Z,27.4980,-83.7220,3.0,-99.0,-99.99,-99.0,'1111122,1111122,1111122' 
COMPS,ioos:station:USF.COMPS:C12:1,2017-12-03T02:25:00Z,27.4980,-83.7220,3.0,2.67,-99.99,0.0,'1111122,1111122,1114422' 
COMPS,ioos:station:USF.COMPS:C12:1,2017-12-03T03:05:00Z,27.4980,-83.7220,3.0,2.35,-99.99,2.91,'1111122,1111122,1111122' 
COMPS,ioos:station:USF.COMPS:C12:1,2017-12-03T03:35:00Z,27.4980,-83.7220,3.0,2.56,-99.99,2.99,'1111122,1111122,1111122' 
COMPS,ioos:station:USF.COMPS:C12:1,2017-12-03T04:05:00Z,27.4980,-83.7220,3.0,2.23,-99.99,2.8,'1111122,1111122,1111122' 
COMPS,ioos:station:USF.COMPS:C12:1,2017-12-03T04:35:00Z,27.4980,-83.7220,3.0,2.62,-99.99,3.23,'1111122,1111122,1111122' 
COMPS,ioos:station:USF.COMPS:C12:1,2017-12-03T05:05:00Z,27.4980,-83.7220,3.0,3.54,-99.99,4.25,'1111122,1111122,1111122' 
COMPS,ioos:station:USF.COMPS:C12:1,2017-12-03T05:35:00Z,27.4980,-83.7220,3.0,4.21,-99.99,4.93,'1111122,1111122,1111122' 
COMPS,ioos:station:USF.COMPS:C12:1,2017-12-03T06:05:00Z,27.4980,-83.7220,3.0,3.92,-99.99,4.79,'1111122,1111122,1111122' 
COMPS,ioos:station:USF.COMPS:C12:1,2017-12-03T06:35:00Z,27.4980,-83.7220,3.0,3.67,-99.99,4.53,'1111122,1111122,1111122' 
COMPS,ioos:station:USF.COMPS:C12:1,2017-12-03T07:05:00Z,27.4980,-83.7220,3.0,2.98,-99.99,3.93,'1111122,1111122,1111122' 
COMPS,ioos:station:USF.COMPS:C12:1,2017-12-03T07:35:00Z,27.4980,-83.7220,3.0,3.23,-99.99,3.9,'1111122,1111122,1111122' 
COMPS,ioos:station:USF.COMPS:C12:1,2017-12-03T08:05:00Z,27.4980,-83.7220,3.0,2.9,-99.99,3.74,'1111122,1111122,1111122' 
COMPS,ioos:station:USF.COMPS:C12:1,2017-12-03T08:35:00Z,27.4980,-83.7220,3.0,2.36,-99.99,3.1,'1111122,1111122,1111122' 
COMPS,ioos:station:USF.COMPS:C12:1,2017-12-03T09:05:00Z,27.4980,-83.7220,3.0,2.75,-99.99,3.54,'1111122,1111122,1111122' 
COMPS,ioos:station:USF.COMPS:C12:1,2017-12-03T09:35:00Z,27.4980,-83.7220,3.0,2.31,-99.99,2.99,'1111122,1111122,1111122' 
COMPS,ioos:station:USF.COMPS:C12:1,2017-12-03T10:05:00Z,27.4980,-83.7220,3.0,2.32,-99.99,3.16,'1111122,1111122,1111122' 
COMPS,ioos:station:USF.COMPS:C12:1,2017-12-03T10:35:00Z,27.4980,-83.7220,3.0,2.68,-99.99,3.29,'1111122,1111122,1111122' 
COMPS,ioos:station:USF.COMPS:C12:1,2017-12-03T11:05:00Z,27.4980,-83.7220,3.0,2.81,-99.99,3.61,'1111122,1111122,1111122' 
COMPS,ioos:station:USF.COMPS:C12:1,2017-12-03T11:35:00Z,27.4980,-83.7220,3.0,3.0,-99.99,3.75,'1111122,1111122,1111122' 
COMPS,ioos:station:USF.COMPS:C12:1,2017-12-03T12:05:00Z,27.4980,-83.7220,3.0,2.91,-99.99,4.04,'1111122,1111122,1111122' 
COMPS,ioos:station:USF.COMPS:C12:1,2017-12-03T12:35:00Z,27.4980,-83.7220,3.0,2.74,-99.99,3.5,'1111122,1111122,1111122' 
COMPS,ioos:station:USF.COMPS:C12:1,2017-12-03T13:05:00Z,27.4980,-83.7220,3.0,2.62,-99.99,3.59,'1111122,1111122,1111122' 
COMPS,ioos:station:USF.COMPS:C12:1,2017-12-03T13:35:00Z,27.4980,-83.7220,3.0,2.82,-99.99,3.76,'1111122,1111122,1111122' 
COMPS,ioos:station:USF.COMPS:C12:1,2017-12-03T14:05:00Z,27.4980,-83.7220,3.0,2.79,-99.99,3.75,'1111122,1111122,1111122' 
COMPS,ioos:station:USF.COMPS:C12:1,2017-12-03T14:35:00Z,27.4980,-83.7220,3.0,2.65,-99.99,3.78,'1111122,1111122,1111122' 
COMPS,ioos:station:USF.COMPS:C12:1,2017-12-03T15:05:00Z,27.4980,-83.7220,3.0,2.87,-99.99,3.73,'1111122,1111122,1111122' 
COMPS,ioos:station:USF.COMPS:C12:1,2017-12-03T15:35:00Z,27.4980,-83.7220,3.0,2.64,-99.99,3.44,'1111122,1111122,1111122' 
COMPS,ioos:station:USF.COMPS:C12:1,2017-12-03T16:05:00Z,27.4980,-83.7220,3.0,2.62,-99.99,3.62,'1111122,1111122,1111122' 
COMPS,ioos:station:USF.COMPS:C12:1,2017-12-03T16:35:00Z,27.4980,-83.7220,3.0,2.96,-99.99,3.94,'1111122,1111122,1111122' 
COMPS,ioos:station:USF.COMPS:C12:1,2017-12-03T17:05:00Z,27.4980,-83.7220,3.0,3.33,-99.99,4.72,'1111122,1111122,1111122' 
COMPS,ioos:station:USF.COMPS:C12:1,2017-12-03T17:35:00Z,27.4980,-83.7220,3.0,3.31,-99.99,4.23,'1111122,1111122,1111122' 
COMPS,ioos:station:USF.COMPS:C12:1,2017-12-03T18:05:00Z,27.4980,-83.7220,3.0,3.13,-99.99,4.15,'1111122,1111122,1111122' 
COMPS,ioos:station:USF.COMPS:C12:1,2017-12-03T18:35:00Z,27.4980,-83.7220,3.0,2.97,-99.99,3.93,'1111122,1111122,1111122' 
COMPS,ioos:station:USF.COMPS:C12:1,2017-12-03T19:05:00Z,27.4980,-83.7220,3.0,2.68,-99.99,3.78,'1111122,1111122,1111122' 
COMPS,ioos:station:USF.COMPS:C12:1,2017-12-03T19:35:00Z,27.4980,-83.7220,3.0,2.28,-99.99,3.23,'1111122,1111122,1111122' 
COMPS,ioos:station:USF.COMPS:C12:1,2017-12-03T20:05:00Z,27.4980,-83.7220,3.0,2.13,-99.99,3.03,'1111122,1111122,1111122' 
COMPS,ioos:station:USF.COMPS:C12:1,2017-12-03T20:35:00Z,27.4980,-83.7220,3.0,2.19,-99.99,2.94,'1111122,1111122,1111122' 
COMPS,ioos:station:USF.COMPS:C12:1,2017-12-03T21:05:00Z,27.4980,-83.7220,3.0,2.29,-99.99,3.25,'1111122,1111122,1111122' 
COMPS,ioos:station:USF.COMPS:C12:1,2017-12-03T21:35:00Z,27.4980,-83.7220,3.0,2.08,-99.99,2.9,'1111122,1111122,1111122' 
COMPS,ioos:station:USF.COMPS:C12:1,2017-12-03T22:05:00Z,27.4980,-83.7220,3.0,1.94,-99.99,2.51,'1111122,1111122,1111122' 
COMPS,ioos:station:USF.COMPS:C12:1,2017-12-03T22:35:00Z,27.4980,-83.7220,3.0,1.89,-99.99,2.54,'1111122,1111122,1111122' 
COMPS,ioos:station:USF.COMPS:C12:1,2017-12-03T23:05:00Z,27.4980,-83.7220,3.0,1.91,-99.99,2.56,'1111122,1111122,1111122' 
COMPS,ioos:station:USF.COMPS:C12:1,2017-12-03T23:35:00Z,27.4980,-83.7220,3.0,2.2,-99.99,3.03,'1111122,1111122,1111122' 
COMPS,ioos:station:USF.COMPS:C12:1,2017-12-04T00:05:00Z,27.4980,-83.7220,3.0,2.41,-99.99,3.16,'1111122,1111122,1111122' 
COMPS,ioos:station:USF.COMPS:C12:1,2017-12-04T00:35:00Z,27.4980,-83.7220,3.0,2.6,-99.99,3.23,'1111122,1111122,1111122' 
COMPS,ioos:station:USF.COMPS:C12:1,2017-12-04T01:05:00Z,27.4980,-83.7220,3.0,2.85,-99.99,3.49,'1111122,1111122,1111122' 
COMPS,ioos:station:USF.COMPS:C12:1,2017-12-04T01:35:00Z,27.4980,-83.7220,3.0,2.74,-99.99,3.41,'1111122,1111122,1111122' 
COMPS,ioos:station:USF.COMPS:C12:1,2017-12-04T02:05:00Z,27.4980,-83.7220,3.0,2.77,-99.99,3.27,'1111122,1111122,1111122' 
COMPS,ioos:station:USF.COMPS:C12:1,2017-12-04T02:35:00Z,27.4980,-83.7220,3.0,3.15,-99.99,3.97,'1111122,1111122,1111122' 
COMPS,ioos:station:USF.COMPS:C12:1,2017-12-04T03:05:00Z,27.4980,-83.7220,3.0,3.2,-99.99,4.03,'1111122,1111122,1111122' 
COMPS,ioos:station:USF.COMPS:C12:1,2017-12-04T03:35:00Z,27.4980,-83.7220,3.0,2.91,-99.99,3.69,'1111122,1111122,1111122' 
COMPS,ioos:station:USF.COMPS:C12:1,2017-12-04T04:05:00Z,27.4980,-83.7220,3.0,2.95,-99.99,3.44,'1111122,1111122,1111122' 
COMPS,ioos:station:USF.COMPS:C12:1,2017-12-04T04:35:00Z,27.4980,-83.7220,3.0,2.65,-99.99,3.23,'1111122,1111122,1111122' 
COMPS,ioos:station:USF.COMPS:C12:1,2017-12-04T05:05:00Z,27.4980,-83.7220,3.0,2.97,-99.99,3.51,'1111122,1111122,1111122' 
COMPS,ioos:station:USF.COMPS:C12:1,2017-12-04T05:35:00Z,27.4980,-83.7220,3.0,3.33,-99.99,4.02,'1111122,1111122,1111122' 
COMPS,ioos:station:USF.COMPS:C12:1,2017-12-04T06:05:00Z,27.4980,-83.7220,3.0,4.79,-99.99,5.87,'1111122,1111122,1111122' 
COMPS,ioos:station:USF.COMPS:C12:1,2017-12-04T06:35:00Z,27.4980,-83.7220,3.0,5.65,-99.99,6.76,'1111122,1111122,1111122' 
COMPS,ioos:station:USF.COMPS:C12:1,2017-12-04T07:05:00Z,27.4980,-83.7220,3.0,5.85,-99.99,6.96,'1111122,1111122,1111122' 
COMPS,ioos:station:USF.COMPS:C12:1,2017-12-04T07:35:00Z,27.4980,-83.7220,3.0,6.45,-99.99,7.7,'1111122,1111122,1111122' 
COMPS,ioos:station:USF.COMPS:C12:1,2017-12-04T08:05:00Z,27.4980,-83.7220,3.0,7.12,-99.99,8.48,'1111122,1111122,1111122' 
COMPS,ioos:station:USF.COMPS:C12:1,2017-12-04T08:35:00Z,27.4980,-83.7220,3.0,6.75,-99.99,8.19,'1111122,1111122,1111122' 
COMPS,ioos:station:USF.COMPS:C12:1,2017-12-04T09:05:00Z,27.4980,-83.7220,3.0,6.67,-99.99,8.56,'1111122,1111122,1111122' 
COMPS,ioos:station:USF.COMPS:C12:1,2017-12-04T09:35:00Z,27.4980,-83.7220,3.0,6.72,-99.99,7.98,'1111122,1111122,1111122' 
COMPS,ioos:station:USF.COMPS:C12:1,2017-12-04T10:05:00Z,27.4980,-83.7220,3.0,6.8,-99.99,8.47,'1111122,1111122,1111122' 
COMPS,ioos:station:USF.COMPS:C12:1,2017-12-04T10:35:00Z,27.4980,-83.7220,3.0,7.34,-99.99,8.71,'1111122,1111122,1111122' 
COMPS,ioos:station:USF.COMPS:C12:1,2017-12-04T11:05:00Z,27.4980,-83.7220,3.0,7.24,-99.99,8.71,'1111122,1111122,1111122' 
COMPS,ioos:station:USF.COMPS:C12:1,2017-12-04T11:35:00Z,27.4980,-83.7220,3.0,6.94,-99.99,8.42,'1111122,1111122,1111122' 
COMPS,ioos:station:USF.COMPS:C12:1,2017-12-04T12:05:00Z,27.4980,-83.7220,3.0,6.71,-99.99,8.05,'1111122,1111122,1111122' 
COMPS,ioos:station:USF.COMPS:C12:1,2017-12-04T12:35:00Z,27.4980,-83.7220,3.0,6.4,-99.99,7.75,'1111122,1111122,1111122' 
COMPS,ioos:station:USF.COMPS:C12:1,2017-12-04T13:05:00Z,27.4980,-83.7220,3.0,6.56,-99.99,7.78,'1111122,1111122,1111122' 
COMPS,ioos:station:USF.COMPS:C12:1,2017-12-04T13:35:00Z,27.4980,-83.7220,3.0,6.64,-99.99,7.71,'1111122,1111122,1111122' 
COMPS,ioos:station:USF.COMPS:C12:1,2017-12-04T14:05:00Z,27.4980,-83.7220,3.0,6.66,-99.99,8.05,'1111122,1111122,1111122' 
COMPS,ioos:station:USF.COMPS:C12:1,2017-12-04T14:35:00Z,27.4980,-83.7220,3.0,7.07,-99.99,8.51,'1111122,1111122,1111122' 
COMPS,ioos:station:USF.COMPS:C12:1,2017-12-04T15:05:00Z,27.4980,-83.7220,3.0,6.74,-99.99,8.07,'1111122,1111122,1111122' 
COMPS,ioos:station:USF.COMPS:C12:1,2017-12-04T15:35:00Z,27.4980,-83.7220,3.0,6.54,-99.99,7.8,'1111122,1111122,1111122' 
COMPS,ioos:station:USF.COMPS:C12:1,2017-12-04T16:05:00Z,27.4980,-83.7220,3.0,6.33,-99.99,7.67,'1111122,1111122,1111122' 
COMPS,ioos:station:USF.COMPS:C12:1,2017-12-04T16:35:00Z,27.4980,-83.7220,3.0,6.71,-99.99,8.17,'1111122,1111122,1111122' 
COMPS,ioos:station:USF.COMPS:C12:1,2017-12-04T17:05:00Z,27.4980,-83.7220,3.0,5.35,-99.99,6.75,'1111122,1111122,1111122' 
COMPS,ioos:station:USF.COMPS:C12:1,2017-12-04T17:35:00Z,27.4980,-83.7220,3.0,5.62,-99.99,6.93,'1111122,1111122,1111122' 
COMPS,ioos:station:USF.COMPS:C12:1,2017-12-04T18:05:00Z,27.4980,-83.7220,3.0,4.86,-99.99,6.39,'1111122,1111122,1111122' 
COMPS,ioos:station:USF.COMPS:C12:1,2017-12-04T18:35:00Z,27.4980,-83.7220,3.0,5.31,-99.99,6.49,'1111122,1111122,1111122' 
COMPS,ioos:station:USF.COMPS:C12:1,2017-12-04T19:05:00Z,27.4980,-83.7220,3.0,4.14,-99.99,5.07,'1111122,1111122,1111122' 
COMPS,ioos:station:USF.COMPS:C12:1,2017-12-04T19:35:00Z,27.4980,-83.7220,3.0,4.4,-99.99,5.47,'1111122,1111122,1111122' 
COMPS,ioos:station:USF.COMPS:C12:1,2017-12-04T20:05:00Z,27.4980,-83.7220,3.0,4.3,78.19,5.25,'1111122,1111122,1111122' 
COMPS,ioos:station:USF.COMPS:C12:1,2017-12-04T20:35:00Z,27.4980,-83.7220,3.0,3.74,89.17,4.59,'1111122,1111122,1111122' 
COMPS,ioos:station:USF.COMPS:C12:1,2017-12-04T21:05:00Z,27.4980,-83.7220,3.0,3.65,86.96,4.62,'1111122,1111122,1111122' 
COMPS,ioos:station:USF.COMPS:C12:1,2017-12-04T21:35:00Z,27.4980,-83.7220,3.0,3.3,89.38,4.17,'1111122,1111122,1111122' 
COMPS,ioos:station:USF.COMPS:C12:1,2017-12-04T22:05:00Z,27.4980,-83.7220,3.0,3.4,74.54,4.53,'1111122,1111122,1111122' 
COMPS,ioos:station:USF.COMPS:C12:1,2017-12-04T22:35:00Z,27.4980,-83.7220,3.0,3.45,68.72,4.25,'1111122,1111122,1111122' 
COMPS,ioos:station:USF.COMPS:C12:1,2017-12-04T23:05:00Z,27.4980,-83.7220,3.0,3.74,59.54,4.86,'1111122,1111122,1111122' 
COMPS,ioos:station:USF.COMPS:C12:1,2017-12-04T23:35:00Z,27.4980,-83.7220,3.0,4.13,56.59,5.26,'1111122,1111122,1111122' 
COMPS,ioos:station:USF.COMPS:C12:1,2017-12-05T00:05:00Z,27.4980,-83.7220,3.0,4.93,51.71,6.29,'1111122,1111122,1111122' 
COMPS,ioos:station:USF.COMPS:C12:1,2017-12-05T00:35:00Z,27.4980,-83.7220,3.0,4.84,49.05,5.77,'1111122,1111122,1111122' 
COMPS,ioos:station:USF.COMPS:C12:1,2017-12-05T01:05:00Z,27.4980,-83.7220,3.0,4.44,44.34,5.65,'1111122,1111122,1111122' 
COMPS,ioos:station:USF.COMPS:C12:1,2017-12-05T01:35:00Z,27.4980,-83.7220,3.0,5.12,51.8,6.41,'1111122,1111122,1111122' 
COMPS,ioos:station:USF.COMPS:C12:1,2017-12-05T02:05:00Z,27.4980,-83.7220,3.0,5.87,51.19,7.11,'1111122,1111122,1111122' 
COMPS,ioos:station:USF.COMPS:C12:1,2017-12-05T02:35:00Z,27.4980,-83.7220,3.0,6.85,57.39,8.27,'1111122,1111122,1111122' 